Flag for Romania Weather past 2 weeks in Târgu Mureş, Romania

Now
50 °F

Passing clouds.


Feels Like: 48 °F
Forecast: 47 / 74 °F
Wind: 5 mph from East

Location: Tirgu Mures Airport

Current Time: Apr 26, 2015 at 9:36:39 AM

Latest Report: Apr 26, 2015 at 9:00 AM


Visibility: 5 mi

Pressure: 29.98 "Hg

Humidity: 76%

Dew point: 43 °F

Location of Târgu MureşLocation

Historic Weather in Târgu Mureş — Graph

°F

Târgu Mureş temperature yesterday

Maximum temperature yesterday: 75 °F (at 3:30 PM)
Minimum temperature yesterday: 36 °F (at 5:30 AM)
Average temperature yesterday: 58 °F

Past Weeks' High & Low Weather Summary

 TemperatureHumidityPressure
High77 °F (Apr 16, 4:00 PM)94% (Apr 18, 2:00 AM)30.33 "Hg (Apr 18, 2:00 AM)
Low27 °F (Apr 23, 6:30 AM)14% (Apr 11, 7:00 PM)29.71 "Hg (Apr 18, 5:30 AM)
Average52 °F54%30.06 "Hg
* Reported Apr 11 8:00 AM — Apr 26 8:30 AM, Târgu Mureş, Weather by CustomWeather, © 2015

Note: Actual official high and low records may vary slightly from our data, if they occured in-between our weather recording intervals... More about our weather records

Advertising

Târgu Mureş weather history for previous 24 hours

 ConditionsComfort  
Time TempWeatherWind HumidityBarometerVisibility
8:30 AM
Sun, Apr 26
48 °FPassing clouds.5 mph76%29.98 "Hg5 mi
8:00 AM45 °FPassing clouds.5 mph81%29.98 "HgN/A
7:30 AM43 °FPassing clouds.5 mph81%29.98 "HgN/A
7:00 AM39 °FPassing clouds.5 mph93%29.98 "HgN/A
6:30 AM39 °FClear.5 mph87%29.98 "Hg10 mi
6:00 AM39 °FClear.5 mph87%29.98 "Hg10 mi
5:30 AM37 °FClear.5 mph87%29.98 "Hg10 mi
5:00 AM39 °FClear.5 mph81%29.98 "Hg10 mi
4:00 AM43 °FClear.2 mph81%29.98 "Hg10 mi
3:00 AM45 °FClear.No wind76%29.98 "Hg10 mi
2:00 AM45 °FClear.No wind76%29.98 "Hg10 mi
1:00 AM46 °FClear.No wind71%29.98 "Hg10 mi
12:00 AM50 °FClear.2 mph67%29.98 "Hg10 mi
11:00 PM
Sat, Apr 25
48 °FPassing clouds.5 mph71%29.98 "HgN/A
10:00 PM55 °FClear.No wind51%29.98 "Hg10 mi
9:00 PM61 °FSunny.1 mph45%29.95 "Hg10 mi
8:30 PM63 °FSunny.No wind42%29.95 "Hg10 mi
8:00 PM66 °FSunny.6 mph37%29.95 "Hg10 mi
7:30 PM68 °FSunny.7 mph35%29.95 "Hg10 mi
7:00 PM70 °FSunny.10 mph31%29.95 "Hg10 mi
6:30 PM73 °FPassing clouds.10 mph27%29.95 "HgN/A
6:00 PM75 °FPassing clouds.7 mph22%29.95 "HgN/A
5:30 PM75 °FPassing clouds.5 mph22%29.95 "HgN/A
5:00 PM75 °FPassing clouds.6 mph22%29.95 "HgN/A
4:30 PM73 °FPassing clouds.2 mph22%29.95 "HgN/A
4:00 PM75 °FPassing clouds.5 mph22%29.95 "HgN/A
3:30 PM75 °FPassing clouds.6 mph22%29.98 "HgN/A
3:00 PM73 °FPassing clouds.7 mph23%29.98 "HgN/A
2:30 PM73 °FPassing clouds.3 mph25%30.01 "HgN/A
2:00 PM73 °FPassing clouds.5 mph29%30.01 "HgN/A
1:30 PM73 °FPassing clouds.1 mph27%30.01 "HgN/A
1:00 PM72 °FPassing clouds.3 mph29%30.04 "HgN/A
12:30 PM68 °FPassing clouds.3 mph35%30.04 "HgN/A
12:00 PM66 °FPassing clouds.3 mph37%30.04 "HgN/A
11:30 AM63 °FPassing clouds.3 mph42%30.07 "HgN/A
11:00 AM63 °FPassing clouds.1 mph42%30.07 "HgN/A
10:30 AM59 °FPassing clouds.1 mph48%30.07 "HgN/A
10:00 AM55 °FPassing clouds.3 mph55%30.07 "HgN/A
9:30 AM52 °FPassing clouds.5 mph58%30.07 "HgN/A
9:00 AM48 °FPassing clouds.6 mph66%30.07 "HgN/A
Weather by CustomWeather, © 2015

See weather overviewHow to use our weather pages